User: anonymous   Login
Location: Unspecified
(0.0000°N, 0.0000°E)
Time: 02:50:27
(UTC+00:00)
Language:

NUDT-PHONESAT - Orbit

View from above orbital plane
View from above orbital plane
View from above satellite
View from above satellite

Ground track
Ground track

The orbit data is extracted from the following two-line orbital elements,

1 40900U 15049B   17147.55770526 +.00002400 +00000-0 +11684-3 0  9998
2 40900 097.4426 155.7749 0012446 302.0101 057.9924 15.19282808093326
Epoch (UTC): 27 May 2017 13:23:05
Eccentricity: 0.0012446
inclination: 97.4426°
perigee height: 499 km
apogee height: 516 km
right ascension of ascending node: 155.7749°
argument of perigee: 302.0101°
revolutions per day: 15.19282808
mean anomaly at epoch: 57.9924°
orbit number at epoch: 9332

The dashed part of the orbit path shows where the satellite is in the earth's shadow,  

DLR